Погода в Ярково

Россия / Новосибирская область     54°48′25″N   82°35′55″E
темп.,
°C
ветер,
м/с
пор.,
м/с
влажн.,
%
обл.,
%
осадки,
мм/ч
давл.,
гПа
погр.,
м
13 апреля, вт
вт1301:000зюз4891100 0.1 1028249
04:00+1зсз4999100 2.1 1028318
07:00+1ссз38100100 2.1 1029197
10:000ссз47100100 0.0 1031231
13:00+1сз46100100 0.1 1033321
16:00+2зсз489965 0.0 1033225
19:00+2зсз6109098 0.0 1033376
22:000з511907 0.0 1034214
14 апреля, ср
ср1401:00+1з71193100 0.0 1034409
04:00+1зсз6992100 0.0 1033437
07:00+1зюз5109599 0.0 1033388
10:00+1юз71399100 0.0 1032419
13:00+2зюз81697100 0.0 1030518
16:00+3зюз81692100 0.0 1027527
19:00+3зюз61492100 0.0 1026462
22:00+3з5119199 0.1 1026279
15 апреля, чт
чт1501:00+2з3897100 0.3 1026166
04:00+2зсз2398100 0.3 102653
07:00+2зюз2298100 0.3 102720
10:00+3зюз2299100 0.0 102751
13:00+4юз2299100 0.1 1026130
16:00+6юз3593100 0.0 1025313
19:00+3юз3698100 0.0 1024123
22:00+3юз479791 0.0 1023115
16 апреля, пт
пт1601:00+2юз489830 0.0 1021127
04:00+2юз410945 0.0 1019146
07:00+3юз41194100 0.0 1018167
10:00+7юз510895 0.0 1017297
13:00+12зюз697945 0.0 1015694
16:00+14зюз786843 0.1 10141220
19:00+13зюз697312 0.1 1013515
22:00+9юз49855 0.0 1012147
17 апреля, сб
сб1701:00+7з238898 0.0 101134
04:00+6св5795100 0.1 1010233
07:00+4св5893100 0.1 1009263
10:00+4св5791100 0.0 1009276
13:00+6св558897 0.1 1008350
16:00+7ссв5482100 0.0 1007462
19:00+4ссв578596 0.0 1007285
22:00+2св4791100 0.1 1007202